TimeMDT,TemperatureF,Dew PointF,Humidity,Sea Level PressureIn,VisibilityMPH,Wind Direction,Wind SpeedMPH,Gust SpeedMPH,PrecipitationIn,Events,Conditions,WindDirDegrees,DateUTC
12:15 AM,72.0,55.0,55,30.12,10.0,ESE,6.9,-,N/A,,Scattered Clouds,110,2013-09-16 06:15:00
12:35 AM,70.7,55.6,59,30.12,10.0,East,3.5,-,N/A,,Scattered Clouds,100,2013-09-16 06:35:00
12:55 AM,70.7,56.3,60,30.12,10.0,East,4.6,-,N/A,,Scattered Clouds,100,2013-09-16 06:55:00
1:15 AM,70.7,56.7,61,30.12,10.0,ESE,5.8,-,N/A,,Mostly Cloudy,110,2013-09-16 07:15:00
1:35 AM,70.0,57.2,64,30.12,10.0,ESE,4.6,-,N/A,,Mostly Cloudy,120,2013-09-16 07:35:00
1:55 AM,69.8,57.4,65,30.12,10.0,ESE,3.5,-,N/A,,Mostly Cloudy,110,2013-09-16 07:55:00
2:15 AM,70.7,57.4,63,30.12,10.0,East,5.8,-,N/A,,Mostly Cloudy,100,2013-09-16 08:15:00
2:35 AM,70.7,57.6,63,30.13,10.0,North,4.6,-,N/A,,Overcast,350,2013-09-16 08:35:00
2:55 AM,69.6,60.4,73,30.13,10.0,NW,6.9,-,N/A,Thunderstorm,Overcast,320,2013-09-16 08:55:00
3:15 AM,69.1,59.0,70,30.14,10.0,North,10.4,-,N/A,,Overcast,360,2013-09-16 09:15:00
3:35 AM,68.4,59.0,72,30.14,10.0,NNW,11.5,-,N/A,,Overcast,340,2013-09-16 09:35:00
3:55 AM,66.6,59.9,79,30.14,10.0,North,12.7,-,N/A,,Overcast,350,2013-09-16 09:55:00
4:15 AM,67.1,59.0,75,30.15,10.0,North,10.4,19.6,N/A,,Scattered Clouds,360,2013-09-16 10:15:00
4:35 AM,66.9,59.0,76,30.15,10.0,North,10.4,17.3,N/A,,Scattered Clouds,10,2013-09-16 10:35:00
4:55 AM,66.4,59.2,78,30.15,10.0,North,12.7,17.3,N/A,,Scattered Clouds,10,2013-09-16 10:55:00
5:15 AM,66.2,59.5,79,30.15,10.0,North,13.8,17.3,N/A,,Scattered Clouds,10,2013-09-16 11:15:00
5:35 AM,65.5,59.5,81,30.16,10.0,North,12.7,-,N/A,Thunderstorm,Scattered Clouds,10,2013-09-16 11:35:00
5:55 AM,65.5,59.4,81,30.16,10.0,North,10.4,18.4,N/A,Thunderstorm,Overcast,10,2013-09-16 11:55:00
6:15 AM,64.9,59.5,83,30.16,10.0,North,11.5,17.3,N/A,,Mostly Cloudy,10,2013-09-16 12:15:00
6:35 AM,64.4,59.0,83,30.17,10.0,North,12.7,17.3,N/A,,Scattered Clouds,10,2013-09-16 12:35:00
6:55 AM,64.4,58.3,80,30.18,10.0,North,11.5,-,N/A,,Scattered Clouds,360,2013-09-16 12:55:00
7:15 AM,64.8,58.1,79,30.18,10.0,North,10.4,18.4,N/A,,Scattered Clouds,10,2013-09-16 13:15:00
7:35 AM,64.9,58.1,78,30.19,10.0,North,10.4,-,N/A,,Scattered Clouds,10,2013-09-16 13:35:00
7:55 AM,65.5,58.1,77,30.19,10.0,NNE,10.4,-,N/A,Thunderstorm,Mostly Cloudy,20,2013-09-16 13:55:00
8:15 AM,68.2,57.2,68,30.18,10.0,NNE,11.5,-,N/A,,Scattered Clouds,20,2013-09-16 14:15:00
8:35 AM,69.8,57.2,64,30.19,10.0,NNE,10.4,-,N/A,,Mostly Cloudy,20,2013-09-16 14:35:00
8:55 AM,70.7,56.8,61,30.19,10.0,NE,10.4,-,N/A,,Scattered Clouds,40,2013-09-16 14:55:00
9:15 AM,72.0,56.8,59,30.20,10.0,NE,8.1,-,N/A,Thunderstorm,Clear,40,2013-09-16 15:15:00
9:35 AM,73.0,57.2,57,30.20,10.0,NE,10.4,-,N/A,Thunderstorm,Scattered Clouds,40,2013-09-16 15:35:00
9:55 AM,73.2,57.7,58,30.21,10.0,North,10.4,-,N/A,Thunderstorm,Scattered Clouds,10,2013-09-16 15:55:00
10:15 AM,72.3,58.1,61,30.21,10.0,NNE,9.2,-,N/A,Thunderstorm,Scattered Clouds,30,2013-09-16 16:15:00
10:35 AM,73.0,58.3,60,30.21,10.0,NNE,10.4,-,N/A,,Mostly Cloudy,20,2013-09-16 16:35:00
10:55 AM,75.2,58.6,56,30.22,10.0,NE,6.9,-,N/A,,Mostly Cloudy,40,2013-09-16 16:55:00
11:15 AM,75.4,58.3,55,30.22,10.0,NNE,6.9,-,N/A,,Scattered Clouds,30,2013-09-16 17:15:00
11:35 AM,75.9,58.1,54,30.21,10.0,East,3.5,-,N/A,,Clear,100,2013-09-16 17:35:00
11:55 AM,75.6,58.3,55,30.21,10.0,NE,3.5,-,N/A,Thunderstorm,Scattered Clouds,40,2013-09-16 17:55:00
12:15 PM,76.6,58.6,54,30.20,10.0,East,4.6,-,N/A,,Overcast,90,2013-09-16 18:15:00
12:35 PM,76.1,58.6,55,30.19,10.0,Calm,Calm,-,N/A,,Overcast,0,2013-09-16 18:35:00
12:55 PM,78.1,59.4,52,30.19,10.0,ENE,5.8,-,N/A,,Mostly Cloudy,60,2013-09-16 18:55:00
1:15 PM,80.4,58.6,47,30.18,10.0,SE,10.4,-,N/A,,Scattered Clouds,140,2013-09-16 19:15:00
1:35 PM,81.0,58.5,46,30.18,10.0,ESE,11.5,16.1,N/A,,Scattered Clouds,120,2013-09-16 19:35:00
1:55 PM,80.8,57.6,45,30.16,10.0,ESE,12.7,17.3,N/A,,Clear,110,2013-09-16 19:55:00
2:15 PM,80.8,58.3,46,30.16,10.0,SE,6.9,-,N/A,,Clear,130,2013-09-16 20:15:00
2:35 PM,80.1,57.7,46,30.15,10.0,ESE,9.2,-,N/A,,Scattered Clouds,120,2013-09-16 20:35:00
2:55 PM,80.8,56.7,43,30.14,10.0,East,9.2,-,N/A,,Scattered Clouds,100,2013-09-16 20:55:00
3:15 PM,81.7,56.7,42,30.14,10.0,ESE,9.2,20.7,N/A,,Scattered Clouds,120,2013-09-16 21:15:00
3:35 PM,82.2,56.5,41,30.12,10.0,ESE,10.4,17.3,N/A,,Scattered Clouds,110,2013-09-16 21:35:00
3:55 PM,80.4,56.5,44,30.12,10.0,SE,4.6,-,N/A,,Scattered Clouds,140,2013-09-16 21:55:00
4:15 PM,79.7,57.0,46,30.12,10.0,SE,5.8,-,N/A,,Scattered Clouds,130,2013-09-16 22:15:00
4:35 PM,81.0,57.4,44,30.11,10.0,ESE,6.9,-,N/A,,Mostly Cloudy,120,2013-09-16 22:35:00
4:55 PM,79.3,57.6,47,30.11,10.0,ESE,8.1,-,N/A,,Scattered Clouds,110,2013-09-16 22:55:00
5:15 PM,80.1,57.0,45,30.11,10.0,Calm,Calm,-,N/A,Thunderstorm,Clear,0,2013-09-16 23:15:00
5:35 PM,80.8,57.4,45,30.11,10.0,SSE,5.8,-,N/A,,Scattered Clouds,150,2013-09-16 23:35:00
5:55 PM,78.1,59.5,53,30.11,10.0,ESE,16.1,21.9,N/A,,Scattered Clouds,120,2013-09-16 23:55:00
6:15 PM,76.6,58.5,53,30.11,10.0,ESE,12.7,-,N/A,,Mostly Cloudy,120,2013-09-17 00:15:00
6:35 PM,75.7,58.3,55,30.12,10.0,ESE,10.4,-,N/A,,Scattered Clouds,110,2013-09-17 00:35:00
6:55 PM,74.7,58.5,57,30.12,10.0,ESE,5.8,-,N/A,,Scattered Clouds,110,2013-09-17 00:55:00
7:15 PM,74.7,58.5,57,30.12,10.0,NNE,9.2,-,N/A,,Overcast,30,2013-09-17 01:15:00
7:35 PM,72.5,60.1,65,30.12,10.0,NNE,5.8,-,N/A,,Mostly Cloudy,30,2013-09-17 01:35:00
7:55 PM,71.4,60.6,69,30.12,10.0,North,5.8,-,N/A,,Scattered Clouds,360,2013-09-17 01:55:00
8:15 PM,70.9,60.1,69,30.13,10.0,North,4.6,-,N/A,,Scattered Clouds,360,2013-09-17 02:15:00
8:35 PM,70.7,60.4,70,30.13,10.0,North,3.5,-,N/A,,Scattered Clouds,360,2013-09-17 02:35:00
8:55 PM,69.8,60.3,72,30.14,10.0,NE,4.6,-,N/A,,Scattered Clouds,40,2013-09-17 02:55:00
9:15 PM,69.8,59.9,71,30.15,10.0,NNE,4.6,-,N/A,,Clear,20,2013-09-17 03:15:00
9:35 PM,69.1,60.1,73,30.15,10.0,NNE,4.6,-,N/A,,Clear,30,2013-09-17 03:35:00
9:55 PM,71.2,59.0,65,30.16,10.0,East,4.6,-,N/A,,Scattered Clouds,80,2013-09-17 03:55:00
10:15 PM,70.7,59.2,67,30.16,10.0,East,5.8,-,N/A,,Scattered Clouds,90,2013-09-17 04:15:00
10:35 PM,69.4,59.4,70,30.16,10.0,East,4.6,-,N/A,,Scattered Clouds,100,2013-09-17 04:35:00
10:55 PM,69.1,59.5,72,30.16,10.0,Calm,Calm,-,N/A,,Clear,0,2013-09-17 04:55:00
11:15 PM,68.7,59.5,72,30.16,10.0,ESE,4.6,-,N/A,,Clear,110,2013-09-17 05:15:00
11:35 PM,68.7,59.4,72,30.16,10.0,ESE,3.5,-,N/A,,Clear,120,2013-09-17 05:35:00
11:55 PM,69.1,58.8,70,30.16,10.0,SE,4.6,-,N/A,,Clear,140,2013-09-17 05:55:00